Regional Weather Roundup
Issued by NWS Glasgow, MT

Home | Current Version | Previous Version | Text Only | Print | Product List | Glossary On
Versions: 1 2 3 4 5 6 7 8 9 10 11 12 13 14 15 16 17 18 19 20 21 22 23 24 25 26 27 28 29 30 31 32 33 34 35 36 37 38 39 40 41 42 43 44 45 46 47 48 49 50
000
ASUS45 KGGW 010615
RWRGGW
HOURLY REGIONAL WEATHER ROUNDUP FOR NORTHEAST MONTANA
NATIONAL WEATHER SERVICE GLASGOW MONTANA
1200 AM MDT SAT AUG 01 2015

NOTE: "FAIR" INDICATES FEW OR NO CLOUDS BELOW 12,000 FEET WITH NO
SIGNIFICANT WEATHER AND/OR OBSTRUCTIONS TO VISISBILITY.

NORTHEAST MONTANA


CITY           SKY/WX    TMP DP  RH WIND       PRES   REMARKS
GLASGOW        CLEAR     68  47  46 NE8       29.99S
6HR MIN TEMP:  66; 6HR MAX TEMP:  93;

PLENTYWOOD       N/A     64  49  57 E7          N/A
WOLF POINT     CLEAR     67  49  52 NE8       29.99S
JORDAN           N/A     64  45  49 CALM      30.03S
WINNETT          N/A     61  45  55 SW3         N/A
SIDNEY         CLEAR    N/A N/A N/A N6        29.99F
GLENDIVE       CLEAR     68  48  49 NE7       30.01S
MALTA            N/A     63  55  75 W1          N/A

FORT PECK REPORTS


CITY           SKY/WX    TMP DP  RH WIND       PRES   REMARKS
FORT PECK        N/A     75  48  38 E5          N/A
THE PINES        N/A     72  51  47 N3          N/A

SOUTHEAST MONTANA


CITY           SKY/WX    TMP DP  RH WIND       PRES   REMARKS
BILLINGS       PTCLDY    79  37  22 N5        30.12S
MILES CITY     CLEAR     70  42  36 NW6       30.01S
BAKER          CLEAR     70  46  42 S9        30.03F
LIVINGSTON     CLEAR     55  36  48 S3        30.19S

CENTRAL MONTANA


CITY           SKY/WX    TMP DP  RH WIND       PRES   REMARKS
HAVRE          CLEAR     67  43  41 VRB5      29.98F
LEWISTOWN      CLEAR     60  44  55 E8        30.13F
GREAT FALLS    CLEAR     62  40  44 S12       30.05F
CUT BANK       CLEAR     60  35  39 W12       30.05S
HELENA         CLEAR     70  35  27 W5        30.12R
BUTTE          CLEAR     59  36  42 CALM      30.27S
BOZEMAN        CLEAR     61  43  51 SE8       30.18S

WESTERN MONTANA


CITY           SKY/WX    TMP DP  RH WIND       PRES   REMARKS
MISSOULA       CLEAR     69  35  28 N3        30.07S
KALISPELL      NOT AVBL

NORTH DAKOTA


CITY           SKY/WX    TMP DP  RH WIND       PRES   REMARKS
WILLISTON      CLEAR     66  52  60 N6        30.03S
DICKINSON      CLEAR     59  50  72 E9        30.03S
MINOT          CLEAR     62  52  69 SW6       30.01S
BISMARCK       MOCLDY    63  58  83 NE3       30.04S

SOUTHERN SASKATCHEWAN


CITY           SKY/WX    TMP DP  RH WIND       PRES   REMARKS
REGINA         CLEAR     54  50  87 SE3       30.03S
ESTEVAN        PTCLDY    57  52  82 E5        30.04S
SWIFT CURRENT  CLEAR     59  52  77 SE10      30.01F



USA.gov is the U.S. government's official web portal to all federal, state and local government web resources and services.